Regional Weather Roundup
Issued by NWS

Home | Current Version | Previous Version | Text Only | Print | Product List | Glossary Off
Versions: 1 2 3 4 5 6 7 8 9 10 11 12 13 14 15 16 17 18 19 20 21 22 23 24 25 26 27 28 29 30 31 32 33 34 35 36 37 38 39 40 41 42 43 44 45 46 47 48 49 50

657
ASUS44 KMEG 221300
RWRTN
TENNESSEE HOURLY STATE WEATHER ROUNDUP
NATIONAL WEATHER SERVICE MEMPHIS TN
700 AM CST WED NOV 22 2017

TNZ002-004-019-021-049-052-054-088>092-221400-
WEST TENNESSEE

CITY           SKY/WX    TMP DP  RH WIND       PRES   REMARKS
MEMPHIS INTL   PTCLDY    34  25  69 N16G22    30.32R WCI  24
NWS MEMPHIS      N/A     33 N/A N/A MISG        N/A
JACKSON        CLEAR     32  25  75 N9        30.33R WCI  24
DYERSBURG      CLOUDY    31  24  75 N8        30.36R WCI  23
$$

TNZ008-025-027-028-033-062-065-066-221400-
NORTH MIDDLE TENNESSEE

CITY           SKY/WX    TMP DP  RH WIND       PRES   REMARKS
NASHVILLE      PTCLDY    33  25  72 N7        30.29R WCI  27
CLARKSVILLE    CLEAR     29  22  75 N8        30.32R WCI  21
SMYRNA         CLEAR     33  27  78 N14       30.28R WCI  23
CROSSVILLE     CLOUDY    36  32  85 N12       30.16R WCI  28
$$

TNZ061-075-076-078-094-096-097-221400-
SOUTH MIDDLE TENNESSEE

CITY           SKY/WX    TMP DP  RH WIND       PRES   REMARKS
WINCHESTER     CLEAR     36  34  93 N8        30.20R WCI  29
$$

TNZ017-018-042-046-047-221400-
NORTHEAST TENNESSEE

CITY           SKY/WX    TMP DP  RH WIND       PRES   REMARKS
TRI CITIES     PTCLDY    39  35  86 CALM      30.10R
$$

TNZ012-013-036-069-073-074-221400-
CENTRAL EAST TENNESSEE

CITY           SKY/WX    TMP DP  RH WIND       PRES   REMARKS
KNOXVILLE      NOT AVBL
OAK RIDGE      CLEAR     41  36  82 CALM      30.17R
$$

TNZ083-085-099-221400-
SOUTHEAST TENNESSEE

CITY           SKY/WX    TMP DP  RH WIND       PRES   REMARKS
CHATTANOOGA    CLEAR     44  35  70 N7        30.14R
$$

SKY/WX REPORTED AS FAIR MEANS FEW OR NO CLOUDS BELOW
12 THOUSAND FEET.





USA.gov is the U.S. government's official web portal to all federal, state and local government web resources and services.